This is the latest recevied weather packets stored in our database for station/object KQ4OSL. If no packets are shown the sender has not sent any weather packets the latest 10 day(s).
| Time | Temp. | Humidity | Pressure | Rain* | Wind** | Luminosity | Snow |
|---|---|---|---|---|---|---|---|
| 1777993273 | 21.67° C | 56% | 1017.7 hPa | 0 mm | - | 626 W/m² | - |
| 1777992968 | 21.67° C | 60% | 1017.8 hPa | 0 mm | - | 610 W/m² | - |
| 1777992667 | 22.22° C | 57% | 1017.7 hPa | 0 mm | - | 602 W/m² | - |
| 1777992364 | 22.22° C | 56% | 1017.6 hPa | 0 mm | - | 589 W/m² | - |
| 1777992062 | 21.67° C | 59% | 1017.7 hPa | 0 mm | - | 575 W/m² | - |
| 1777991759 | 21.67° C | 59% | 1017.8 hPa | 0 mm | - | 567 W/m² | - |
| 1777991456 | 21.11° C | 59% | 1017.7 hPa | 0 mm | - | 500 W/m² | - |
| 1777991153 | 21.11° C | 60% | 1017.8 hPa | 0 mm | - | 521 W/m² | - |
| 1777990851 | 20.56° C | 60% | 1017.9 hPa | 0 mm | - | 526 W/m² | - |
| 1777990548 | 20° C | 58% | 1017.8 hPa | 0 mm | - | 514 W/m² | - |
| 1777989941 | 20° C | 65% | 1017.5 hPa | 0 mm | - | 476 W/m² | - |
| 1777989638 | 20° C | 62% | 1017.5 hPa | 0 mm | - | 468 W/m² | - |
| 1777989334 | 20.56° C | 66% | 1017.5 hPa | 0 mm | - | 454 W/m² | - |
| 1777989031 | 20° C | 70% | 1017.5 hPa | 0 mm | - | 441 W/m² | - |
| 1777988727 | 20° C | 73% | 1017.5 hPa | 0 mm | - | 426 W/m² | - |
| 1777988424 | 20° C | 71% | 1017.5 hPa | 0 mm | - | 414 W/m² | - |
| 1777988121 | 18.89° C | 74% | 1017.3 hPa | 0 mm | - | 399 W/m² | - |
| 1777987817 | 18.89° C | 73% | 1017.1 hPa | 0 mm | - | 382 W/m² | - |
| 1777987514 | 18.33° C | 78% | 1017.3 hPa | 0 mm | - | 366 W/m² | - |
| 1777987212 | 17.22° C | 80% | 1017.1 hPa | 0 mm | - | 349 W/m² | - |
| 1777986908 | 16.67° C | 80% | 1017 hPa | 0 mm | - | 335 W/m² | - |
| 1777986606 | 15.56° C | 82% | 1017.2 hPa | 0 mm | - | 317 W/m² | - |
| 1777986303 | 15.56° C | 83% | 1017 hPa | 0 mm | - | 304 W/m² | - |
| 1777986001 | 15.56° C | 83% | 1017.3 hPa | 0 mm | - | 286 W/m² | - |
| 1777985698 | 15° C | 83% | 1017.1 hPa | 0 mm | - | 265 W/m² | - |
* Rain latest hour (hover to see other rain measurements)
** Current wind speed in m/s (hover to see current wind gust speed)